Regional Weather Roundup
Issued by NWS Goodland, KS

Home | Current Version | Previous Version | Graphics & Text | Print | Product List | Glossary On
Versions: 1 2 3 4 5 6 7 8 9 10 11 12 13 14 15 16 17 18 19 20 21 22 23 24 25 26 27 28 29 30 31 32 33 34 35 36 37 38 39 40 41 42 43 44 45 46 47 48 49 50
000
ASUS43 KGLD 202359
RWRGLD

GOODLAND FORECAST AREA HOURLY WEATHER ROUNDUP
NATIONAL WEATHER SERVICE GOODLAND KS
600 PM MDT THU JUL 20 2017

...OFFICIAL OBSERVATIONS...

CITY           SKY/WX    TMP DP  RH WIND       PRES   REMARKS
GOODLAND KS    SUNNY     94  62  34 S9        29.94F
HILL CITY KS   SUNNY    102  57  22 S12       29.88F HX 101
IMPERIAL NEB   SUNNY     98  61  29 NW7       29.90F
MCCOOK NEB     SUNNY    101  55  21 S9        29.87F
AKRON CO       SUNNY     92  56  29 NE13      30.03F
BURLINGTON CO  SUNNY     94  61  33 SE9       30.00F
LIMON CO       SUNNY     89  54  30 E6        30.09F
$$

...UNOFFICIAL OBSERVATIONS...

CITY           SKY/WX    TMP DP  RH WIND       PRES   REMARKS
LENORA KS        N/A     98  32  10 MISG        N/A
NORTON KS      SUNNY     99  48  18 SE9       29.87F
SHARON SPRINGS   N/A     96  65  36 S10         N/A
TRENTON NEB      N/A    102  32   8 SW6         N/A
KIT CARSON CO    N/A     96  59  29 CALM        N/A
YUMA CO        FAIR      90  45  20 E5        29.99F
$$




USA.gov is the U.S. government's official web portal to all federal, state and local government web resources and services.